Ponca City, OK

8:20 PM CDT on March 23, 2017 (GMT -0500)
Ponca City Municipal

Weather History for KPNC - October, 2013

Change the Weather History Date:

Thursday, October 17, 2013

  Actual Average Record
Temperature  
Mean Temperature 52 °F -  
Max Temperature 66 °F 71 °F 91 °F (2016)
Min Temperature 37 °F 46 °F 30 °F (2002)
Degree Days  
Heating Degree Days 14    
Growing Degree Days 2 (Base 50)    
Moisture  
Dew Point 40 °F    
Average Humidity 74    
Maximum Humidity 97    
Minimum Humidity 37    
Precipitation  
Precipitation 0.00 in - - ()
Sea Level Pressure  
Sea Level Pressure 30.03 in    
Wind  
Wind Speed 2 mph (SW)    
Max Wind Speed 9 mph    
Max Gust Speed -    
Visibility 9 miles    
Events      
Averages and records for this station are not official NWS values.
T = Trace of Precipitation, MM = Missing Value Source: NWS Daily Summary

Daily Weather History Graph

Daily Weather History Graph

Search for Another Location

Airport or City:

Trip Planner

Search our weather history database for the weather conditions in past years. The results will help you decide how hot, cold, wet, or windy it might be!

Date:

Astronomy

Oct. 17, 2013 Rise Set
Actual Time 7:37 AM CDT 6:48 PM CDT
Civil Twilight 7:11 AM CDT 7:14 PM CDT
Nautical Twilight 6:41 AM CDT 7:45 PM CDT
Astronomical Twilight 6:11 AM CDT 8:14 PM CDT
Moon 6:02 PM CDT (10/17) 6:12 AM CDT (10/17)
Length of Visible Light 12h 03m
Length of Day
11h 10m
Waxing Gibbous, 98% of the Moon is Illuminated
Oct 17
Waxing Gibbous
Oct 18
Full
Oct 26
Last Quarter
Nov 3
New
Nov 9
First Quarter

Hourly Weather History & Observations

Time (CDT) Temp. Windchill Dew Point Humidity Pressure Visibility Wind Dir Wind Speed Gust Speed Precip Events Conditions
12:53 AM 42.1 °F 40.2 °F 39.0 °F 89% 30.07 in 10.0 mi SW 3.5 mph - N/A   Clear
1:53 AM 37.9 °F - 36.0 °F 93% 30.06 in 6.0 mi Calm Calm - N/A   Clear
2:53 AM 42.1 °F 40.2 °F 39.0 °F 89% 30.06 in 10.0 mi SSW 3.5 mph - N/A   Overcast
3:53 AM 39.9 °F - 37.0 °F 89% 30.05 in 10.0 mi Calm Calm - N/A   Clear
4:53 AM 39.0 °F - 36.0 °F 89% 30.05 in 9.0 mi Calm Calm - N/A   Scattered Clouds
5:53 AM 37.9 °F - 35.1 °F 89% 30.06 in 2.5 mi Calm Calm - N/A   Clear
6:02 AM 37.4 °F - 35.6 °F 93% 30.05 in 6.0 mi Calm Calm - N/A   Clear
6:53 AM 39.9 °F - 37.0 °F 89% 30.05 in 8.0 mi Calm Calm - N/A   Clear
7:53 AM 37.9 °F - 37.0 °F 97% 30.06 in 8.0 mi Calm Calm - N/A   Clear
8:53 AM 43.0 °F - 41.0 °F 93% 30.06 in 7.0 mi Calm Calm - N/A   Clear
9:53 AM 48.0 °F - 42.1 °F 80% 30.07 in 10.0 mi SW 4.6 mph - N/A   Clear
10:53 AM 54.0 °F - 42.1 °F 64% 30.07 in 10.0 mi WSW 9.2 mph - N/A   Clear
11:53 AM 57.0 °F - 41.0 °F 55% 30.05 in 10.0 mi SW 8.1 mph - N/A   Clear
12:53 PM 59.0 °F - 44.1 °F 58% 30.03 in 10.0 mi Variable 5.8 mph - N/A   Clear
1:53 PM 62.1 °F - 43.0 °F 50% 30.01 in 10.0 mi SSW 5.8 mph - N/A   Clear
2:53 PM 64.0 °F - 45.0 °F 50% 29.97 in 10.0 mi Variable 4.6 mph - N/A   Clear
3:53 PM 64.9 °F - 44.1 °F 47% 29.96 in 10.0 mi SSW 4.6 mph - N/A   Clear
4:53 PM 66.0 °F - 41.0 °F 40% 29.96 in 10.0 mi Variable 4.6 mph - N/A   Clear
5:53 PM 66.0 °F - 39.0 °F 37% 29.95 in 10.0 mi Calm Calm - N/A   Clear
6:53 PM 61.0 °F - 42.1 °F 50% 29.96 in 10.0 mi South 3.5 mph - N/A   Clear
7:53 PM 54.0 °F - 43.0 °F 66% 29.99 in 10.0 mi Calm Calm - N/A   Clear
8:53 PM 48.9 °F - 44.1 °F 83% 30.00 in 10.0 mi Calm Calm - N/A   Clear
9:53 PM 46.9 °F - 42.1 °F 83% 30.02 in 10.0 mi Calm Calm - N/A   Clear
10:53 PM 46.9 °F - 42.1 °F 83% 30.02 in 10.0 mi Calm Calm - N/A   Clear
11:53 PM 46.0 °F 44.8 °F 41.0 °F 83% 30.02 in 10.0 mi North 3.5 mph - N/A   Clear